1488168000.11,54962,9.13,73226.8,-5.99,-8.81,-8.59,0,*5C
1488168001.32,54963,9.13,73230.5,-5.97,-8.67,-8.51,0,*53
1488168002.56,54964,9.13,73226.5,-5.99,-8.59,-8.51,0,*57
1488168003.78,54965,9.13,73232.5,-5.97,-8.45,-8.51,0,*55
1488168004.97,54966,9.13,73232.0,-5.97,-8.45,-8.55,0,*52
1488168006.15,54967,9.13,73232.8,-5.97,-8.33,-8.55,0,*52
1488168007.33,54968,9.13,73236.3,-5.97,-8.21,-8.55,0,*5E
1488168008.58,54969,9.13,73238.3,-5.97,-8.11,-8.51,0,*58
1488168009.76,54970,9.13,73236.5,-5.97,-8.25,-8.63,0,*56
1488168010.99,54971,9.13,73236.5,-5.95,-8.37,-8.81,0,*5A
1488168012.21,54972,9.13,73236.8,-5.97,-8.51,-9.01,0,*52
1488168013.44,54973,9.13,73234.5,-5.95,-8.55,-9.15,0,*50
1488168014.63,54974,9.13,73238.8,-5.97,-8.67,-9.19,0,*58
1488168015.84,54975,9.13,73238.5,-5.97,-8.81,-9.31,0,*5B
1488168017.06,54976,9.13,73236.5,-5.97,-8.93,-9.57,0,*5B
1488168018.29,54977,9.13,73240.0,-5.97,-9.15,-9.75,0,*55
1488168019.51,54978,9.13,73236.0,-5.97,-9.27,-9.83,0,*52
1488168020.74,54979,9.13,73236.0,-5.95,-9.41,-9.97,0,*54
1488168021.95,54980,9.13,73242.5,-5.95,-9.71,-10.15,0,*63
1488168023.19,54981,9.13,73238.8,-5.95,-9.83,-10.15,0,*6F
1488168024.42,54982,9.13,73236.0,-5.95,-9.83,-10.27,0,*6D
1488168025.63,54983,9.13,73242.0,-5.95,-9.89,-10.15,0,*67
1488168026.83,54984,9.13,73248.5,-5.97,-9.75,-10.15,0,*61
1488168028.04,54985,9.13,73248.3,-5.95,-9.89,-10.27,0,*60
1488168029.24,54986,9.13,73246.8,-5.95,-9.97,-10.23,0,*68
1488168030.45,54987,9.13,73250.3,-5.95,-9.97,-10.15,0,*6C
1488168031.66,54988,9.13,73242.5,-5.95,-10.01,-10.15,0,*54
1488168032.88,54989,9.13,73232.0,-5.95,-10.15,-10.31,0,*56
1488168034.1,54990,9.13,73226.5,-5.95,-10.45,-10.57,0,*5B
1488168035.34,54991,9.13,73216.0,-5.95,-10.57,-10.67,0,*5A
1488168036.61,54992,9.13,73210.3,-5.95,-10.67,-10.71,0,*5D
1488168037.88,54993,9.13,73212.3,-5.93,-10.57,-10.67,0,*5E
1488168039.18,54994,9.13,73226.8,-5.93,-10.67,-10.67,0,*5A
1488168040.45,54995,9.13,73230.8,-5.93,-10.57,-10.67,0,*58
1488168041.71,54996,9.13,73228.5,-5.93,-10.53,-10.67,0,*5F
1488168042.97,54997,9.13,73232.8,-5.93,-10.53,-10.67,0,*5E
1488168044.26,54998,9.13,73236.5,-5.93,-10.71,-10.71,0,*56
1488168045.55,54999,9.13,73234.5,-5.93,-10.79,-10.79,0,*57
1488168046.81,55000,9.13,73230.3,-5.93,-10.85,-10.79,0,*5C
1488168048.05,55001,9.13,73234.3,-5.93,-10.93,-10.93,0,*5E
1488168049.29,55002,9.13,73234.3,-5.93,-10.97,-10.93,0,*59
1488168050.56,55003,9.13,73232.3,-5.93,-11.07,-10.93,0,*50
1488168051.82,55004,9.13,73230.8,-5.93,-11.07,-10.93,0,*57
1488168053.09,55005,9.13,73230.8,-5.93,-11.07,-10.97,0,*52
1488168054.35,55006,9.13,73234.8,-5.93,-11.29,-11.11,0,*52
1488168055.59,55007,9.13,73230.8,-5.93,-11.23,-11.11,0,*59
1488168056.8,55008,9.13,73232.3,-5.95,-11.23,-11.23,0,*51
1488168058.05,55009,9.13,73232.3,-5.95,-11.29,-11.23,0,*5A
1488168059.26,55010,9.13,73228.8,-5.95,-11.41,-11.23,0,*5C
1488168060.48,55011,9.13,73236.5,-5.95,-11.41,-11.23,0,*5D
1488168061.69,55012,9.13,73234.3,-5.95,-11.41,-11.23,0,*5E
1488168062.93,55013,9.13,73236.3,-5.95,-11.37,-11.15,0,*5B
1488168064.17,55014,9.13,73232.5,-5.95,-10.93,-10.79,0,*58
1488168065.4,55015,9.13,73226.0,-5.97,-10.93,-10.79,0,*5B
1488168066.64,55016,9.13,73230.3,-5.97,-11.07,-10.93,0,*50
1488168067.84,55017,9.13,73232.0,-5.97,-11.15,-11.11,0,*59
1488168069.07,55018,9.13,73242.3,-5.97,-11.29,-11.11,0,*59
1488168070.28,55019,9.13,73234.0,-5.97,-11.11,-10.93,0,*58
1488168071.5,55020,9.13,73234.5,-5.97,-10.85,-10.79,0,*5A
1488168072.72,55021,9.13,73234.3,-5.95,-10.85,-10.53,0,*51
1488168073.96,55022,9.13,73238.0,-5.95,-10.67,-10.45,0,*59
1488168075.17,55023,9.13,73238.0,-5.95,-10.53,-10.31,0,*5C
1488168076.39,55024,9.13,73236.5,-5.95,-10.53,-10.27,0,*5C
1488168077.69,55025,9.13,73228.8,-5.93,-10.67,-10.41,0,*5C
1488168078.92,55026,9.13,73232.5,-5.93,-10.53,-10.27,0,*58
1488168080.16,55027,9.13,73228.8,-5.93,-10.53,-10.31,0,*5E
1488168081.36,55028,9.13,73224.3,-5.91,-10.53,-10.23,0,*50
1488168082.57,55029,9.13,73232.5,-5.91,-10.45,-10.23,0,*56
1488168083.8,55030,9.13,73234.0,-5.93,-10.23,-10.09,0,*54
1488168085.02,55031,9.13,73224.8,-5.91,-10.35,-10.05,0,*5C
1488168086.23,55032,9.13,73222.3,-5.91,-10.35,-10.05,0,*5F
1488168087.43,55033,9.13,73220.0,-5.91,-10.05,-9.93,0,*6A
1488168088.65,55034,9.13,73216.0,-5.91,-10.05,-9.83,0,*6C
1488168089.85,55035,9.13,73218.8,-5.91,-10.19,-9.97,0,*65
1488168091.08,55036,9.13,73216.8,-5.91,-10.35,-10.19,0,*56
1488168092.34,55037,9.13,73230.3,-5.91,-10.63,-10.41,0,*59
1488168093.63,55038,9.13,73224.5,-5.89,-10.75,-10.63,0,*58
1488168094.87,55039,9.13,73226.3,-5.87,-10.85,-10.75,0,*5F
1488168096.13,55040,9.13,73226.3,-5.89,-11.01,-10.75,0,*52
1488168097.39,55041,9.13,73238.3,-5.89,-11.07,-10.89,0,*56
1488168098.6,55042,9.13,73234.5,-5.91,-11.19,-11.01,0,*52
1488168099.84,55043,9.13,73236.8,-5.91,-11.23,-11.07,0,*5C
1488168101.05,55044,9.13,73232.8,-5.91,-11.23,-11.11,0,*5C
1488168102.26,55045,9.13,73236.8,-5.91,-11.11,-10.93,0,*57
1488168103.47,55046,9.13,73232.0,-5.91,-11.11,-10.89,0,*5F
1488168104.68,55047,9.13,73234.8,-5.91,-11.11,-11.01,0,*5F
1488168105.89,55048,9.13,73238.5,-5.91,-11.11,-10.93,0,*5A
1488168107.13,55049,9.13,73238.0,-5.93,-11.11,-10.97,0,*5D
1488168108.37,55050,9.13,73234.3,-5.91,-10.93,-10.75,0,*50
1488168109.63,55051,9.13,73238.3,-5.89,-10.71,-10.45,0,*57
1488168110.9,55052,9.13,73242.0,-5.91,-10.67,-10.41,0,*5E
1488168112.1,55053,9.13,73242.3,-5.91,-10.53,-10.23,0,*5C
1488168113.32,55054,9.13,73240.5,-5.91,-10.49,-10.27,0,*54
1488168114.56,55055,9.13,73240.0,-5.89,-10.57,-10.35,0,*50
1488168115.8,55056,9.13,73236.3,-5.89,-10.49,-10.35,0,*5C
1488168117.01,55057,9.13,73230.8,-5.87,-10.57,-10.31,0,*58
1488168118.27,55058,9.13,73228.5,-5.89,-10.63,-10.45,0,*5D
1488168119.53,55059,9.13,73230.5,-5.89,-10.63,-10.45,0,*5C
1488168120.75,55060,9.13,73226.0,-5.87,-10.57,-10.31,0,*5C
1488168121.98,55061,9.13,73226.0,-5.89,-10.49,-10.23,0,*5F
1488168123.22,55062,9.13,73220.8,-5.89,-10.45,-10.19,0,*59
1488168124.43,55063,9.13,73214.5,-5.87,-10.57,-10.31,0,*5F
1488168125.67,55064,9.13,73208.8,-5.87,-10.71,-10.49,0,*53
1488168126.93,55065,9.13,73208.0,-5.87,-10.75,-10.75,0,*59
1488168128.14,55066,9.13,73202.8,-5.87,-11.01,-10.85,0,*57
1488168129.35,55067,9.13,73198.5,-5.87,-11.19,-10.97,0,*5C
1488168130.58,55068,9.13,73196.5,-5.89,-11.19,-10.97,0,*5D
1488168131.84,55069,9.13,73204.3,-5.89,-11.33,-11.15,0,*5F
1488168133.07,55070,9.13,73214.5,-5.87,-11.33,-11.15,0,*59
1488168134.31,55071,9.13,73218.8,-5.89,-11.41,-11.15,0,*53
1488168135.57,55072,9.13,73216.3,-5.89,-11.41,-11.29,0,*5F
1488168136.81,55073,9.13,73216.3,-5.89,-11.41,-11.19,0,*5D
1488168138.04,55074,9.13,73212.5,-5.89,-11.41,-11.19,0,*5A
1488168139.28,55075,9.13,73214.5,-5.89,-11.41,-11.15,0,*57
1488168140.51,55076,9.13,73230.5,-5.91,-11.33,-11.19,0,*54
1488168141.75,55077,9.13,73232.0,-5.91,-11.33,-11.19,0,*55
1488168142.98,55078,9.13,73232.5,-5.91,-11.33,-11.19,0,*5A
1488168144.24,55079,9.13,73228.8,-5.93,-11.23,-11.07,0,*57
1488168145.48,55080,9.13,73248.8,-5.91,-11.07,-10.89,0,*52
1488168146.75,55081,9.13,73230.0,-5.93,-10.67,-10.53,0,*51
1488168147.96,55082,9.13,73228.3,-5.91,-10.49,-10.27,0,*5F
1488168149.17,55083,9.13,73226.8,-5.91,-10.49,-10.23,0,*5A
1488168150.41,55084,9.13,73226.5,-5.91,-10.41,-10.23,0,*55
1488168151.62,55085,9.13,73234.5,-5.91,-10.27,-10.09,0,*5C
1488168152.84,55086,9.13,73236.3,-5.89,-10.01,-9.79,0,*6D
1488168154.06,55087,9.13,73236.5,-5.89,-9.93,-9.75,0,*53
1488168155.26,55088,9.13,73228.5,-5.87,-10.01,-9.79,0,*6D
1488168156.48,55089,9.13,73230.0,-5.87,-10.31,-10.15,0,*5D
1488168157.69,55090,9.13,73234.8,-5.87,-10.57,-10.35,0,*57
1488168158.93,55091,9.13,73242.8,-5.87,-10.71,-10.57,0,*56
1488168160.17,55092,9.13,73238.5,-5.87,-10.71,-10.49,0,*5A
1488168161.41,55093,9.13,73242.3,-5.87,-10.71,-10.57,0,*54
1488168162.63,55094,9.13,73238.5,-5.87,-10.57,-10.35,0,*53
1488168163.84,55095,9.13,73232.0,-5.87,-10.57,-10.31,0,*56
1488168165.05,55096,9.13,73232.0,-5.87,-10.57,-10.31,0,*55
1488168166.27,55097,9.13,73232.8,-5.87,-10.57,-10.35,0,*50
1488168167.48,55098,9.13,73226.5,-5.87,-10.49,-10.31,0,*54
1488168168.7,55099,9.13,73228.3,-5.87,-10.35,-10.19,0,*54
1488168169.94,55100,9.13,73228.8,-5.85,-10.31,-10.15,0,*5F
1488168171.17,55101,9.13,73232.3,-5.85,-10.27,-10.09,0,*54
1488168172.43,55102,9.13,73224.0,-5.85,-10.41,-10.27,0,*5B
1488168173.66,55103,9.13,73216.0,-5.85,-10.53,-10.27,0,*59
1488168174.87,55104,9.13,73210.8,-5.83,-10.45,-10.19,0,*52
1488168176.14,55105,9.13,73208.5,-5.85,-10.41,-10.15,0,*5D
1488168177.35,55106,9.13,73222.3,-5.83,-10.45,-10.15,0,*5C
1488168178.59,55107,9.13,73220.8,-5.83,-10.41,-10.19,0,*55
1488168179.79,55108,9.13,73222.5,-5.83,-10.53,-10.27,0,*54
1488168181.06,55109,9.13,73218.3,-5.83,-10.67,-10.41,0,*52
1488168182.29,55110,9.13,73222.5,-5.83,-10.79,-10.57,0,*52
1488168183.5,55111,9.13,73226.0,-5.83,-10.53,-10.27,0,*5C
1488168184.72,55112,9.13,73226.0,-5.83,-10.19,-10.01,0,*55
1488168185.93,55113,9.13,73222.8,-5.83,-10.19,-10.01,0,*54
1488168187.14,55114,9.13,73214.3,-5.83,-10.27,-10.01,0,*5E
1488168188.38,55115,9.13,73206.0,-5.83,-10.41,-10.09,0,*57
1488168189.58,55116,9.13,73186.5,-5.83,-10.53,-10.31,0,*5C
1488168190.82,55117,9.13,73156.3,-5.79,-10.67,-10.53,0,*5B
1488168192.05,55118,9.13,73150.3,-5.77,-10.49,-10.23,0,*51
1488168193.27,55119,9.13,73150.8,-5.79,-10.49,-10.27,0,*5A
1488168194.54,55120,9.13,73172.5,-5.79,-10.63,-10.41,0,*58
1488168195.8,55121,9.13,73186.8,-5.77,-10.63,-10.49,0,*5F
1488168197.04,55122,9.13,73166.8,-5.79,-10.63,-10.35,0,*59
1488168198.28,55123,9.13,73172.3,-5.79,-10.63,-10.53,0,*58
1488168199.53,55124,9.13,73188.8,-5.79,-10.67,-10.49,0,*50
1488168200.77,55125,9.13,73196.5,-5.79,-10.67,-10.49,0,*51
1488168202.03,55126,9.13,73214.5,-5.77,-10.67,-10.53,0,*57
1488168203.3,55127,9.13,73214.0,-5.77,-10.67,-10.53,0,*56
1488168204.54,55128,9.13,73208.8,-5.79,-10.89,-10.67,0,*50
1488168205.78,55129,9.13,73214.8,-5.79,-10.97,-10.79,0,*51
1488168206.99,55130,9.13,73218.0,-5.79,-10.97,-10.93,0,*5D
1488168208.26,55131,9.13,73218.5,-5.79,-11.07,-11.07,0,*58
1488168209.5,55132,9.13,73216.8,-5.79,-11.23,-11.07,0,*5D
1488168210.76,55133,9.13,73214.0,-5.79,-11.33,-11.07,0,*5D
1488168212.0,55134,9.13,73208.0,-5.83,-11.29,-11.11,0,*53
1488168213.23,55135,9.13,73212.5,-5.85,-11.23,-11.11,0,*5E
1488168214.49,55136,9.13,73224.5,-5.85,-11.29,-11.11,0,*57
1488168215.72,55137,9.13,73228.5,-5.85,-11.23,-11.11,0,*5C
1488168216.95,55138,9.13,73222.8,-5.85,-11.23,-11.01,0,*52
1488168218.19,55139,9.13,73222.0,-5.85,-11.11,-10.97,0,*5C
1488168219.42,55140,9.13,73224.3,-5.85,-11.23,-10.97,0,*53
1488168220.68,55141,9.13,73224.0,-5.85,-11.29,-11.11,0,*57
1488168221.94,55142,9.13,73220.0,-5.85,-11.29,-11.01,0,*55
1488168223.15,55143,9.13,73220.5,-5.83,-11.15,-11.01,0,*5D
1488168224.38,55144,9.13,73220.5,-5.85,-11.15,-11.01,0,*5C
1488168225.61,55145,9.13,73220.0,-5.85,-11.15,-10.97,0,*53
1488168226.82,55146,9.13,73226.5,-5.83,-11.15,-11.01,0,*58
1488168228.08,55147,9.13,73224.3,-5.85,-11.29,-11.11,0,*51
1488168229.31,55148,9.13,73222.0,-5.85,-11.23,-11.01,0,*55
1488168230.55,55149,9.13,73218.8,-5.87,-11.29,-11.15,0,*59
1488168231.81,55150,9.13,73212.5,-5.87,-11.33,-11.07,0,*59
1488168233.05,55151,9.13,73212.0,-5.87,-11.33,-11.15,0,*5B
1488168234.26,55152,9.13,73212.3,-5.87,-11.41,-11.19,0,*51
1488168235.51,55153,9.13,73208.8,-5.89,-11.33,-11.15,0,*57
1488168236.78,55154,9.13,73204.3,-5.89,-11.45,-11.29,0,*5E
1488168238.05,55155,9.13,73206.5,-5.89,-11.45,-11.29,0,*5F
1488168239.29,55156,9.13,73210.8,-5.89,-11.45,-11.41,0,*52
1488168240.53,55157,9.13,73204.3,-5.89,-11.45,-11.41,0,*53
1488168241.79,55158,9.13,73200.5,-5.89,-11.45,-11.33,0,*59
1488168243.04,55159,9.13,73208.0,-5.91,-11.51,-11.37,0,*50
1488168244.29,55160,9.13,73210.8,-5.91,-11.51,-11.33,0,*5E
1488168245.55,55161,9.13,73212.0,-5.91,-11.51,-11.33,0,*5F
1488168246.81,55162,9.13,73216.0,-5.91,-11.55,-11.37,0,*5C
1488168248.09,55163,9.13,73220.8,-5.93,-11.63,-11.51,0,*5A
1488168249.37,55164,9.13,73222.5,-5.93,-11.51,-11.33,0,*58
1488168250.66,55165,9.13,73224.0,-5.93,-11.51,-11.29,0,*52
1488168251.9,55166,9.13,73224.8,-5.93,-11.41,-11.15,0,*5F
1488168253.16,55167,9.13,73224.5,-5.93,-11.29,-11.11,0,*54
1488168254.42,55168,9.13,73228.5,-5.93,-11.37,-11.11,0,*54
1488168255.66,55169,9.13,73232.3,-5.91,-11.07,-10.89,0,*54
1488168256.89,55170,9.13,73230.0,-5.93,-11.15,-10.93,0,*56
1488168258.13,55171,9.13,73224.3,-5.93,-11.11,-10.97,0,*57
1488168259.4,55172,9.13,73220.3,-5.93,-11.23,-11.07,0,*5D
1488168260.64,55173,9.13,73222.8,-5.93,-11.11,-10.93,0,*51
1488168261.88,55174,9.13,73218.8,-5.93,-11.15,-10.97,0,*56
1488168263.12,55175,9.13,73218.8,-5.93,-11.11,-10.97,0,*53
1488168264.36,55176,9.13,73222.5,-5.93,-11.11,-10.97,0,*50
1488168265.65,55177,9.13,73216.0,-5.93,-11.29,-11.07,0,*52
1488168266.91,55178,9.13,73214.5,-5.93,-11.29,-11.11,0,*5A
1488168268.18,55179,9.13,73216.0,-5.93,-11.23,-11.07,0,*56
1488168269.45,55180,9.13,73222.3,-5.93,-11.23,-11.07,0,*50
1488168270.71,55181,9.13,73226.3,-5.93,-11.29,-11.11,0,*5C
1488168271.95,55182,9.13,73230.8,-5.93,-11.23,-11.11,0,*55
1488168273.19,55183,9.13,73230.3,-5.95,-11.29,-11.11,0,*58
1488168274.4,55184,9.13,73228.3,-5.95,-11.23,-11.11,0,*55
1488168275.63,55185,9.13,73232.5,-5.97,-11.37,-11.15,0,*57
1488168276.87,55186,9.13,73226.0,-5.95,-11.51,-11.23,0,*53
1488168278.13,55187,9.13,73226.8,-5.95,-11.51,-11.29,0,*58
1488168279.39,55188,9.13,73224.8,-5.95,-11.55,-11.29,0,*53
1488168280.65,55189,9.13,73226.5,-5.95,-11.51,-11.37,0,*59
1488168281.91,55190,9.13,73226.5,-5.97,-11.55,-11.37,0,*57
1488168283.16,55191,9.13,73230.5,-5.97,-11.55,-11.37,0,*56
1488168284.39,55192,9.13,73226.8,-5.97,-11.55,-11.41,0,*54
1488168285.65,55193,9.13,73230.5,-5.99,-11.67,-11.45,0,*5E
1488168286.88,55194,9.13,73230.8,-5.97,-11.63,-11.41,0,*57
1488168288.11,55195,9.13,73230.0,-5.97,-11.55,-11.41,0,*53
1488168289.36,55196,9.13,73224.0,-5.97,-11.51,-11.37,0,*55
1488168290.61,55197,9.13,73226.3,-6.01,-11.55,-11.33,0,*58
1488168291.89,55198,9.13,73224.3,-5.99,-11.55,-11.33,0,*55
1488168293.14,55199,9.13,73220.5,-5.99,-11.59,-11.41,0,*5D
1488168294.4,55200,9.13,73222.3,-5.99,-11.59,-11.41,0,*5E
1488168295.64,55201,9.13,73230.0,-6.01,-11.59,-11.41,0,*5D
1488168296.87,55202,9.13,73230.5,-6.01,-11.59,-11.41,0,*5E
1488168298.13,55203,9.13,73232.0,-5.99,-11.59,-11.41,0,*5D
1488168299.36,55204,9.13,73228.3,-6.01,-11.59,-11.41,0,*58
1488168300.61,55205,9.13,73232.0,-6.01,-11.59,-11.33,0,*5C
1488168301.85,55206,9.13,73230.0,-6.01,-11.59,-11.41,0,*5A
1488168303.08,55207,9.13,73234.8,-6.01,-11.59,-11.41,0,*5B
1488168304.33,55208,9.13,73232.0,-6.01,-11.55,-11.33,0,*5D
1488168305.57,55209,9.13,73222.5,-6.01,-11.55,-11.41,0,*59
1488168306.8,55210,9.13,73236.3,-6.05,-11.63,-11.45,0,*54
1488168308.03,55211,9.13,73232.0,-6.05,-11.63,-11.45,0,*55
1488168309.29,55212,9.13,73226.5,-6.05,-11.63,-11.51,0,*53
1488168310.55,55213,9.13,73218.8,-6.05,-11.63,-11.51,0,*52
1488168311.84,55214,9.13,73226.3,-6.07,-11.67,-11.51,0,*53
1488168313.12,55215,9.13,73226.3,-6.07,-11.63,-11.51,0,*56
1488168314.39,55216,9.13,73216.8,-6.07,-11.63,-11.41,0,*54
1488168315.64,55217,9.13,73214.3,-6.07,-11.37,-11.23,0,*50
1488168316.88,55218,9.13,73226.5,-6.07,-11.41,-11.19,0,*57
1488168318.16,55219,9.13,73216.8,-6.07,-11.37,-11.29,0,*54
1488168319.4,55220,9.13,73218.5,-6.05,-11.41,-11.37,0,*52
1488168320.68,55221,9.13,73218.3,-6.07,-11.51,-11.29,0,*5F
1488168321.94,55222,9.13,73218.5,-6.09,-11.37,-11.29,0,*52
1488168323.2,55223,9.13,73222.5,-6.07,-11.37,-11.23,0,*57
1488168324.45,55224,9.13,73224.0,-6.09,-11.51,-11.37,0,*5B
1488168325.71,55225,9.13,73224.5,-6.09,-11.51,-11.29,0,*55
1488168326.96,55226,9.13,73226.3,-6.09,-11.51,-11.37,0,*59
1488168328.2,55227,9.13,73228.5,-6.09,-11.41,-11.29,0,*56
1488168329.43,55228,9.13,73228.3,-6.09,-11.37,-11.23,0,*52
1488168330.64,55229,9.13,73230.3,-6.09,-11.41,-11.23,0,*52
1488168331.88,55230,9.13,73230.5,-6.09,-11.41,-11.29,0,*50
1488168333.16,55231,9.13,73228.0,-6.11,-11.55,-11.33,0,*56
1488168334.37,55232,9.13,73232.5,-6.09,-11.41,-11.23,0,*58
1488168335.6,55233,9.13,73226.0,-6.09,-11.37,-11.23,0,*58
1488168336.81,55234,9.13,73228.3,-6.09,-11.23,-11.11,0,*5B
1488168338.04,55235,9.13,73226.5,-6.09,-11.29,-11.19,0,*58
1488168339.25,55236,9.13,73226.0,-6.09,-11.23,-11.23,0,*58
1488168340.48,55237,9.13,73226.0,-6.09,-11.37,-11.23,0,*5C
1488168341.69,55238,9.13,73222.5,-6.09,-11.41,-11.23,0,*52
1488168342.96,55239,9.13,73226.3,-6.11,-11.41,-11.29,0,*50
1488168344.22,55240,9.13,73228.0,-6.11,-11.33,-11.23,0,*51
1488168345.48,55241,9.13,73226.8,-6.11,-11.29,-11.11,0,*5A
1488168346.74,55242,9.13,73224.5,-6.11,-11.29,-11.15,0,*5D
1488168347.98,55243,9.13,73226.3,-6.11,-11.15,-11.01,0,*56
1488168349.22,55244,9.13,73222.5,-6.11,-11.01,-10.97,0,*5A
1488168350.47,55245,9.13,73228.0,-6.11,-11.01,-10.97,0,*5B
1488168351.7,55246,9.13,73222.5,-6.11,-11.11,-11.01,0,*57
1488168352.93,55247,9.13,73220.8,-6.09,-11.19,-11.07,0,*51
1488168354.17,55248,9.13,73228.3,-6.11,-11.11,-11.01,0,*59
1488168355.4,55249,9.13,73228.0,-6.11,-11.11,-11.01,0,*58
1488168356.64,55250,9.13,73226.0,-6.11,-11.15,-11.11,0,*55
1488168357.84,55251,9.13,73224.0,-6.09,-11.19,-11.11,0,*51
1488168359.04,55252,9.13,73216.0,-6.09,-11.19,-11.11,0,*52
1488168360.28,55253,9.13,73212.3,-6.11,-11.23,-11.15,0,*57
1488168361.49,55254,9.13,73220.5,-6.09,-11.23,-11.19,0,*55
1488168362.75,55255,9.13,73220.5,-6.11,-11.33,-11.23,0,*55
1488168363.98,55256,9.13,73228.3,-6.11,-11.11,-11.01,0,*56
1488168365.22,55257,9.13,73224.3,-6.09,-10.79,-10.57,0,*53
1488168366.45,55258,9.13,73226.3,-6.09,-10.71,-10.57,0,*54
1488168367.69,55259,9.13,73228.0,-6.11,-10.97,-10.85,0,*5B
1488168368.93,55260,9.13,73226.0,-6.11,-11.11,-10.97,0,*5D
1488168370.17,55261,9.13,73226.8,-6.11,-11.01,-10.97,0,*5D
1488168371.41,55262,9.13,73226.0,-6.09,-11.07,-10.97,0,*51
1488168372.62,55263,9.13,73226.3,-6.09,-11.19,-10.97,0,*5F
1488168373.86,55264,9.13,73226.0,-6.09,-11.29,-11.19,0,*5C
1488168375.12,55265,9.13,73224.3,-6.11,-11.33,-11.15,0,*53
1488168376.37,55266,9.13,73230.3,-6.11,-11.33,-11.23,0,*55
1488168377.61,55267,9.13,73228.5,-6.11,-11.41,-11.23,0,*51
1488168378.85,55268,9.13,73226.8,-6.11,-11.23,-11.11,0,*5B
1488168380.08,55269,9.13,73222.5,-6.11,-11.23,-11.11,0,*5A
1488168381.32,55270,9.13,73224.8,-6.11,-11.15,-11.01,0,*56
1488168382.55,55271,9.13,73224.3,-6.11,-11.23,-11.15,0,*57
1488168383.79,55272,9.13,73224.3,-6.09,-11.29,-11.19,0,*5B
1488168385.03,55273,9.13,73224.5,-6.11,-11.41,-11.23,0,*54
1488168386.26,55274,9.13,73232.5,-6.09,-11.37,-11.19,0,*52
1488168387.52,55275,9.13,73234.3,-6.11,-11.29,-11.11,0,*5D
1488168388.74,55276,9.13,73230.5,-6.09,-10.97,-10.93,0,*58
1488168390.0,55277,9.13,73228.8,-6.11,-10.97,-10.75,0,*58
1488168391.24,55278,9.13,73228.0,-6.09,-10.71,-10.57,0,*56
1488168392.45,55279,9.13,73230.3,-6.09,-10.93,-10.57,0,*5B
1488168393.66,55280,9.13,73226.3,-6.09,-10.93,-10.85,0,*52
1488168394.9,55281,9.13,73228.3,-6.09,-11.07,-10.97,0,*5C
1488168396.11,55282,9.13,73230.3,-6.09,-11.23,-11.11,0,*56
1488168397.34,55283,9.13,73224.8,-6.09,-11.51,-11.23,0,*53
1488168398.6,55284,9.13,73224.8,-6.09,-11.55,-11.29,0,*5A
1488168399.86,55285,9.13,73228.0,-6.11,-11.55,-11.41,0,*5C
1488168401.12,55286,9.13,73234.0,-6.09,-11.37,-11.29,0,*5C
1488168402.33,55287,9.13,73228.5,-6.09,-11.41,-11.23,0,*56
1488168403.57,55288,9.13,73228.0,-6.09,-11.41,-11.29,0,*53
1488168404.83,55289,9.13,73228.5,-6.09,-11.55,-11.37,0,*58
1488168406.08,55290,9.13,73230.8,-6.13,-11.59,-11.33,0,*53
1488168407.36,55291,9.13,73228.5,-6.11,-11.55,-11.33,0,*5C
1488168408.62,55292,9.13,73230.8,-6.09,-11.55,-11.37,0,*52
1488168409.88,55293,9.13,73228.8,-6.11,-11.59,-11.41,0,*57
1488168411.15,55294,9.13,73228.0,-6.11,-11.59,-11.41,0,*50
1488168412.41,55295,9.13,73228.3,-6.11,-11.59,-11.41,0,*51
1488168413.7,55296,9.13,73228.3,-6.11,-11.67,-11.55,0,*5A
1488168414.99,55297,9.13,73232.5,-6.11,-11.67,-11.55,0,*5B
1488168416.23,55298,9.13,73228.3,-6.13,-11.59,-11.41,0,*5E
1488168417.46,55299,9.13,73238.5,-6.13,-11.59,-11.45,0,*5B
1488168418.73,55300,9.13,73236.8,-6.13,-11.67,-11.55,0,*56
1488168419.99,55301,9.13,73232.8,-6.13,-11.67,-11.55,0,*57
1488168421.26,55302,9.13,73236.5,-6.13,-11.59,-11.55,0,*59
1488168422.52,55303,9.13,73232.5,-6.13,-11.67,-11.55,0,*55
1488168423.78,55304,9.13,73236.3,-6.13,-11.73,-11.55,0,*57
1488168425.04,55305,9.13,73238.3,-6.13,-11.67,-11.55,0,*53
1488168426.3,55306,9.13,73232.8,-6.13,-11.73,-11.67,0,*54
1488168427.56,55307,9.13,73238.0,-6.13,-11.73,-11.67,0,*55
1488168428.82,55308,9.13,73236.3,-6.13,-11.85,-11.67,0,*53
1488168430.08,55309,9.13,73238.5,-6.17,-11.85,-11.73,0,*53
1488168431.33,55310,9.13,73236.8,-6.17,-11.85,-11.77,0,*5F
1488168432.59,55311,9.13,73238.3,-6.17,-11.97,-11.85,0,*50
1488168433.88,55312,9.13,73236.5,-6.19,-12.07,-11.89,0,*5B
1488168435.15,55313,9.13,73242.3,-6.19,-12.03,-11.93,0,*55
1488168436.41,55314,9.13,73240.5,-6.19,-12.03,-11.89,0,*59
1488168437.7,55315,9.13,73242.8,-6.19,-11.89,-11.89,0,*59
1488168438.99,55316,9.13,73246.0,-6.19,-11.93,-11.81,0,*59
1488168440.27,55317,9.13,73246.5,-6.19,-11.81,-11.51,0,*56
1488168441.54,55318,9.13,73246.0,-6.19,-11.63,-11.41,0,*54
1488168442.82,55319,9.13,73244.3,-6.19,-11.51,-11.37,0,*55
1488168444.03,55320,9.13,73244.5,-6.21,-11.41,-11.23,0,*50
1488168445.27,55321,9.13,73242.5,-6.21,-11.37,-11.23,0,*50
1488168446.5,55322,9.13,73242.5,-6.21,-11.37,-11.23,0,*53
1488168447.74,55323,9.13,73242.5,-6.19,-11.41,-11.23,0,*58
1488168448.95,55324,9.13,73242.0,-6.21,-11.41,-11.19,0,*5D
1488168450.18,55325,9.13,73238.0,-6.21,-11.33,-11.19,0,*59
1488168451.41,55326,9.13,73236.3,-6.21,-11.33,-11.19,0,*5A
1488168452.64,55327,9.13,73232.3,-6.21,-11.33,-11.19,0,*5B
1488168453.85,55328,9.13,73228.0,-6.21,-11.23,-11.19,0,*55
1488168455.08,55329,9.13,73228.5,-6.21,-11.33,-11.11,0,*5D
1488168456.32,55330,9.13,73220.8,-6.21,-11.33,-11.11,0,*55
1488168457.55,55331,9.13,73224.5,-6.21,-11.37,-11.23,0,*51
1488168458.78,55332,9.13,73226.5,-6.21,-11.55,-11.23,0,*56
1488168460.03,55333,9.13,73224.5,-6.21,-11.51,-11.37,0,*56
1488168461.29,55334,9.13,73226.5,-6.21,-11.51,-11.33,0,*55
1488168462.52,55335,9.13,73224.5,-6.21,-11.23,-11.07,0,*56
1488168463.76,55336,9.13,73224.3,-6.21,-11.33,-11.11,0,*53
1488168464.97,55337,9.13,73220.8,-6.21,-11.41,-11.19,0,*5F
1488168466.18,55338,9.13,73226.5,-6.21,-11.41,-11.19,0,*50
1488168467.43,55339,9.13,73228.8,-6.21,-11.55,-11.37,0,*58
1488168468.69,55340,9.13,73230.5,-6.21,-11.63,-11.51,0,*53
1488168469.95,55341,9.13,73224.8,-6.21,-11.63,-11.51,0,*52
1488168471.21,55342,9.13,73224.8,-6.21,-11.63,-11.51,0,*51
1488168472.46,55343,9.13,73226.3,-6.21,-11.51,-11.37,0,*51
1488168473.67,55344,9.13,73220.5,-6.21,-11.41,-11.23,0,*52
1488168474.88,55345,9.13,73222.3,-6.21,-11.41,-11.23,0,*53
1488168476.12,55346,9.13,73220.5,-6.23,-11.41,-11.23,0,*52
1488168477.38,55347,9.13,73222.0,-6.23,-11.37,-11.23,0,*52
1488168478.64,55348,9.13,73220.0,-6.23,-11.37,-11.23,0,*5D
1488168479.87,55349,9.13,73218.5,-6.21,-11.33,-11.19,0,*53
1488168481.1,55350,9.13,73220.0,-6.21,-11.19,-11.07,0,*5C
1488168482.37,55351,9.13,73226.5,-6.19,-11.11,-11.07,0,*5E
1488168483.58,55352,9.13,73226.5,-6.21,-11.11,-10.97,0,*5E
1488168484.82,55353,9.13,73224.5,-6.21,-11.07,-10.93,0,*5C
1488168486.08,55354,9.13,73230.3,-6.21,-11.07,-10.79,0,*5F
1488168487.31,55355,9.13,73232.3,-6.21,-11.07,-10.85,0,*5D
1488168488.55,55356,9.13,73232.0,-6.21,-11.07,-10.93,0,*59
1488168489.76,55357,9.13,73232.3,-6.21,-11.11,-10.97,0,*5B
1488168490.96,55358,9.13,73228.5,-6.21,-11.19,-11.11,0,*53
1488168492.17,55359,9.13,73228.3,-6.21,-11.19,-11.11,0,*52
1488168493.4,55360,9.13,73224.5,-6.21,-11.33,-11.11,0,*50
1488168494.61,55361,9.13,73230.5,-6.21,-11.41,-11.23,0,*55
1488168495.84,55362,9.13,73226.3,-6.21,-11.37,-11.23,0,*57
1488168497.07,55363,9.13,73226.5,-6.21,-11.33,-11.19,0,*5B
1488168498.28,55364,9.13,73220.8,-6.21,-11.41,-11.23,0,*50
1488168499.54,55365,9.13,73220.3,-6.21,-11.51,-11.37,0,*55
1488168500.79,55366,9.13,73222.8,-6.21,-11.55,-11.37,0,*52
1488168502.03,55367,9.13,73226.0,-6.21,-11.67,-11.41,0,*53
1488168503.29,55368,9.13,73226.5,-6.21,-11.63,-11.51,0,*59
1488168504.55,55369,9.13,73226.0,-6.21,-11.67,-11.51,0,*5C